Regional Weather Roundup
Issued by NWS Newport/Morehead, NC

Current Version | Previous Version | Text Only | Print | Product List | Glossary On
Versions: 1 2 3 4 5 6 7 8 9 10 11 12 13 14 15 16 17 18 19 20 21 22 23 24 25 26 27 28 29 30 31 32 33 34 35 36 37 38 39 40 41 42 43 44 45 46 47 48 49 50
000
ASUS42 KMHX 211410
RWRMHX
WEATHER ROUNDUP FOR EASTERN NORTH CAROLINA
NATIONAL WEATHER SERVICE NEWPORT/MOREHEAD CITY NC
1000 AM EDT SUN SEP 21 2014

NOTE: "FAIR" INDICATES FEW OR NO CLOUDS BELOW 12,000 FEET
WITH NO SIGNIFICANT WEATHER AND/OR OBSTRUCTIONS TO VISIBILITY

NCZ015>017-031-032-045>047-102-103-211500-
NORTH COAST

CITY           SKY/WX    TMP DP  RH WIND       PRES   REMARKS
EDENTON        CLOUDY    73  70  92 N12G22    29.80S
ELIZABETH CITY CLOUDY    73  70  90 N14G21    29.79R
KITTY HAWK     CLOUDY    73  71  95 N8        29.75R
MANTEO         CLOUDY    73  70  88 N13G20    29.76R

$$

NCZ045>047-081-094-103-104-211500-
CENTRAL COAST

CITY           SKY/WX    TMP DP  RH WIND       PRES   REMARKS
FRISCO         CLOUDY    73  72  96 N8        29.73S
SWANQUARTER      N/A     73 N/A N/A NW12      29.74S

$$

NCZ095-097-098-100-101-211500-
SOUTHERN COAST

CITY           SKY/WX    TMP DP  RH WIND       PRES   REMARKS
BEAUFORT       CLOUDY    74  70  87 N16       29.79R
CEDAR ISLAND     N/A     73 N/A N/A N18G25    29.79S
JACKSONVILLE   CLOUDY    72  67  84 NW13G23   29.85R
NEWPORT        NOT AVBL
PINEY ISLAND   PTSUNNY   76  70  82 N20G26    29.78R
WILMINGTON     CLOUDY    73  68  84 NW13      29.87R


$$

NCZ011>013-027>030-043-044-078>080-089-090>093-098-211500-
COASTAL PLAIN

CITY           SKY/WX    TMP DP  RH WIND       PRES   REMARKS
AHOSKIE        PTSUNNY   68  64  88 NW10G16   29.86R
CLINTON        PTSUNNY   70  65  86 NW3       29.90S
ELIZABETHTOWN  MOSUNNY   69  64  84 NW7       29.91R
GOLDSBORO      PTSUNNY   70  67  89 VRB1G16   29.86R
GREENVILLE     PTSUNNY   70  68  94 NW7       29.87S
HAVELOCK       CLOUDY    72  69  90 NW17      29.82R
KENANSVILLE    MOSUNNY   73  65  74 NW9G16    29.89R
KINSTON        MOSUNNY   75  68  78 N9        29.86S
NEW BERN       CLOUDY    72  68  87 NW10      29.83R
RICHLANDS      CLOUDY    72  66  83 NW7       29.86R
ROANOKE RAPIDS NOT AVBL
ROCKY MOUNT    PTSUNNY   69  63  81 N8        29.88S
WASHINGTON     PTSUNNY   71  68  93 NW6       29.83R
WHITEVILLE     MOSUNNY   69  64  83 NW5       29.91R

$$

AMZ130-135-150-152-154-156-158-170-250-252-270-ANZ085-086-088-633-658-670-211500-
MARINE OBSERVATIONS

STATION/POSITION TIME  TEMP    WIND        PRES    WAVE   SWELL
                       AIR SEA DIR/SP/G            HT/PER HT/PER
                 (UTC) (F)     (DEG/KT/KT) (MB)    (FT/S) (FT/S)
CHESAPEAKE LIGHT 1300   72      20/ 17/ 18 1009.0
BUOY 44014       1400   74 70   30/ 19/ 25 1005.7    7/ 7
DUCK             1400   72 74  360/ 21/ 25 1006.5
2E DUCK          1400                        N/A     6/ 9   2/11
OREGON INLET     1400   72 74  350/ 14/ 19 1007.0
BUOY 44095       1400      74                N/A     7/ 8   2/11
20E OREGON INLET NOT AVBL
HATTERAS CG      1400   73 74  340/ 18/ 20 1007.2
DIAMOND BUOY     1400   76     330/ 21/ 25 1005.7    8/ 8   5/ 9
CAPE LOOKOUT     1300   72     340/ 19/ 23 1007.6
BEAUFORT LAB     1400   73 74  340/ 11/ 16 1008.3
30 SE NEW RIVER  1300   75 82  340/ 23/ 27 1008.6
5 SE WRIGHTSVILL 1300   69 79  320/ 17/ 21   N/A
BUOY 41002       1336   79 82  250/ 21/ 25 1009.5   11/ 8
BUOY 41004       1400   74 81  320/ 17/ 21 1013.2    6/ 7   3/ 8

$$



USA.gov is the U.S. government's official web portal to all federal, state and local government web resources and services.